Hourly Weather Kozle

Today, 21 October, Wednesday

Time Temperature Precipitation Wind Pressure Humidity
00:00 +10°C° 0 mm 4 mps 751 mmHg 74%
01:00 +11°C° 0 mm 4 mps 751 mmHg 74%
02:00 +11°C° 0 mm 3 mps 751 mmHg 74%
03:00 +10°C° 0 mm 3 mps 750 mmHg 75%
04:00 +10°C° 0 mm 3 mps 750 mmHg 75%
05:00 +10°C° 0.3 mm 3 mps 750 mmHg 79%
06:00 +10°C° 0.3 mm 3 mps 750 mmHg 83%
07:00 +10°C° 0 mm 3 mps 750 mmHg 84%
08:00 +10°C° 0.1 mm 3 mps 750 mmHg 82%
09:00 +10°C° 0.1 mm 3 mps 750 mmHg 80%
10:00 +10°C° 0.1 mm 3 mps 750 mmHg 78%
11:00 +10°C° 0 mm 3 mps 750 mmHg 76%
12:00 +11°C° 0 mm 3 mps 750 mmHg 74%
13:00 +11°C° 0 mm 3 mps 750 mmHg 72%
14:00 +11°C° 0 mm 3 mps 749 mmHg 72%
15:00 +11°C° 0 mm 3 mps 749 mmHg 71%
16:00 +11°C° 0 mm 3 mps 749 mmHg 71%
17:00 +11°C° 0 mm 4 mps 749 mmHg 72%
18:00 +11°C° 0 mm 4 mps 749 mmHg 72%
19:00 +11°C° 0 mm 4 mps 749 mmHg 73%
20:00 +11°C° 0 mm 4 mps 749 mmHg 74%
21:00 +11°C° 0 mm 4 mps 749 mmHg 74%
22:00 +10°C° 0 mm 5 mps 749 mmHg 75%
23:00 +10°C° 0 mm 5 mps 749 mmHg 72%

Tomorrow, 22 October, Thursday

Time Temperature Precipitation Wind Pressure Humidity
00:00 +12°C° 0 mm 5 mps 750 mmHg 70%
01:00 +11°C° 0 mm 6 mps 750 mmHg 67%
02:00 +11°C° 0 mm 6 mps 750 mmHg 68%
03:00 +11°C° 0 mm 6 mps 749 mmHg 69%
04:00 +11°C° 0 mm 6 mps 749 mmHg 69%
05:00 +11°C° 0 mm 6 mps 750 mmHg 71%
06:00 +11°C° 0 mm 6 mps 750 mmHg 72%
07:00 +11°C° 0 mm 6 mps 750 mmHg 74%
08:00 +14°C° 0 mm 6 mps 751 mmHg 71%
09:00 +15°C° 0 mm 6 mps 751 mmHg 69%
10:00 +16°C° 0 mm 6 mps 752 mmHg 67%
11:00 +17°C° 0 mm 6 mps 752 mmHg 65%
12:00 +19°C° 0 mm 6 mps 752 mmHg 62%
13:00 +20°C° 0 mm 6 mps 752 mmHg 59%
14:00 +19°C° 0 mm 5 mps 751 mmHg 63%
15:00 +18°C° 0 mm 4 mps 751 mmHg 66%
16:00 +17°C° 0 mm 4 mps 751 mmHg 69%
17:00 +17°C° 0 mm 4 mps 751 mmHg 72%
18:00 +15°C° 0 mm 4 mps 751 mmHg 74%
19:00 +14°C° 0 mm 4 mps 751 mmHg 76%
20:00 +14°C° 0 mm 4 mps 751 mmHg 77%
21:00 +14°C° 0 mm 4 mps 751 mmHg 77%
22:00 +14°C° 0 mm 4 mps 751 mmHg 77%
23:00 +14°C° 0 mm 5 mps 751 mmHg 76%

Day after tomorrow, 23 October, Friday

Time Temperature Precipitation Wind Pressure Humidity
00:00 +14°C° 0 mm 5 mps 751 mmHg 76%
01:00 +14°C° 0 mm 5 mps 751 mmHg 76%
02:00 +14°C° 0.1 mm 5 mps 750 mmHg 77%
03:00 +14°C° 0.1 mm 5 mps 750 mmHg 78%
04:00 +14°C° 0.1 mm 4 mps 750 mmHg 79%
05:00 +14°C° 0.1 mm 4 mps 750 mmHg 82%
06:00 +14°C° 0.1 mm 5 mps 750 mmHg 84%
07:00 +14°C° 0.1 mm 5 mps 750 mmHg 86%
08:00 +14°C° 0.1 mm 5 mps 750 mmHg 86%
09:00 +14°C° 0.1 mm 5 mps 750 mmHg 85%
10:00 +14°C° 0.1 mm 5 mps 750 mmHg 85%
11:00 +15°C° 0.1 mm 5 mps 750 mmHg 81%
12:00 +16°C° 0.1 mm 5 mps 750 mmHg 77%
13:00 +17°C° 0.1 mm 5 mps 749 mmHg 72%
14:00 +17°C° 0.2 mm 4 mps 749 mmHg 75%
15:00 +17°C° 0.2 mm 3 mps 749 mmHg 78%
16:00 +16°C° 0.2 mm 2 mps 749 mmHg 81%
17:00 +15°C° 0 mm 2 mps 749 mmHg 84%
18:00 +15°C° 0 mm 2 mps 749 mmHg 88%
19:00 +14°C° 0 mm 1 mps 749 mmHg 91%
20:00 +13°C° 0.1 mm 1 mps 749 mmHg 91%
21:00 +13°C° 0.1 mm 1 mps 749 mmHg 92%
22:00 +13°C° 0.1 mm 1 mps 749 mmHg 92%
23:00 +13°C° 0.1 mm 1 mps 749 mmHg 93%

24 October, Saturday

Time Temperature Precipitation Wind Pressure Humidity
00:00 +12°C° 0.1 mm 1 mps 749 mmHg 94%
01:00 +12°C° 0.1 mm 1 mps 749 mmHg 95%
02:00 +12°C° 0.2 mm 2 mps 749 mmHg 95%
03:00 +12°C° 0.2 mm 2 mps 749 mmHg 96%
04:00 +11°C° 0.2 mm 3 mps 749 mmHg 97%
05:00 +11°C° 0 mm 3 mps 749 mmHg 95%
06:00 +11°C° 0 mm 4 mps 749 mmHg 93%
07:00 +11°C° 0 mm 4 mps 749 mmHg 91%
08:00 +12°C° 0 mm 5 mps 750 mmHg 86%
09:00 +13°C° 0 mm 6 mps 750 mmHg 80%
10:00 +13°C° 0 mm 6 mps 751 mmHg 74%
11:00 +13°C° 0.1 mm 6 mps 751 mmHg 72%
12:00 +12°C° 0.1 mm 7 mps 751 mmHg 70%
13:00 +12°C° 0.1 mm 7 mps 751 mmHg 68%
14:00 +13°C° 0 mm 6 mps 751 mmHg 68%
15:00 +12°C° 0 mm 5 mps 752 mmHg 68%
16:00 +12°C° 0 mm 4 mps 752 mmHg 68%
17:00 +11°C° 0 mm 3 mps 752 mmHg 71%
18:00 +10°C° 0 mm 2 mps 753 mmHg 74%
19:00 +9°C° 0 mm 2 mps 753 mmHg 76%
20:00 +9°C° 0 mm 2 mps 753 mmHg 78%
21:00 +8°C° 0 mm 2 mps 753 mmHg 80%
22:00 +8°C° 0 mm 2 mps 754 mmHg 81%
23:00 +8°C° 0 mm 2 mps 753 mmHg 85%

25 October, Sunday

Time Temperature Precipitation Wind Pressure Humidity
00:00 +8°C° 0 mm 2 mps 753 mmHg 89%
01:00 +8°C° 0 mm 3 mps 753 mmHg 92%
02:00 +8°C° 0 mm 3 mps 753 mmHg 92%
03:00 +8°C° 0 mm 3 mps 753 mmHg 93%
04:00 +8°C° 0 mm 3 mps 752 mmHg 93%
05:00 +8°C° 0 mm 3 mps 752 mmHg 92%
06:00 +8°C° 0 mm 3 mps 752 mmHg 92%
07:00 +8°C° 0 mm 3 mps 752 mmHg 92%
08:00 +9°C° 0 mm 3 mps 752 mmHg 86%
09:00 +11°C° 0 mm 4 mps 752 mmHg 80%
10:00 +13°C° 0 mm 4 mps 751 mmHg 74%
11:00 +14°C° 0 mm 4 mps 751 mmHg 70%
12:00 +15°C° 0 mm 4 mps 751 mmHg 66%
13:00 +16°C° 0 mm 5 mps 750 mmHg 62%
14:00 +15°C° 0 mm 4 mps 750 mmHg 65%
15:00 +15°C° 0 mm 4 mps 750 mmHg 68%
16:00 +14°C° 0 mm 3 mps 749 mmHg 70%
17:00 +13°C° 0 mm 3 mps 749 mmHg 74%
18:00 +12°C° 0 mm 3 mps 749 mmHg 77%
19:00 +12°C° 0 mm 3 mps 749 mmHg 81%
20:00 +11°C° 0 mm 4 mps 749 mmHg 81%
21:00 +11°C° 0 mm 4 mps 749 mmHg 82%
22:00 +11°C° 0 mm 4 mps 749 mmHg 83%
23:00 +11°C° 0 mm 4 mps 749 mmHg 84%

26 October, Monday

Time Temperature Precipitation Wind Pressure Humidity
00:00 +10°C° 0 mm 3 mps 749 mmHg 86%
01:00 +10°C° 0 mm 3 mps 748 mmHg 87%
02:00 +9°C° 0 mm 3 mps 748 mmHg 88%
03:00 +9°C° 0 mm 3 mps 748 mmHg 89%
04:00 +9°C° 0 mm 3 mps 748 mmHg 90%
05:00 +9°C° 0 mm 3 mps 748 mmHg 90%
06:00 +9°C° 0 mm 3 mps 748 mmHg 90%
07:00 +9°C° 0 mm 2 mps 748 mmHg 91%
08:00 +10°C° 0 mm 3 mps 748 mmHg 85%
09:00 +12°C° 0 mm 3 mps 748 mmHg 79%
10:00 +13°C° 0 mm 4 mps 748 mmHg 73%
11:00 +13°C° 0 mm 4 mps 748 mmHg 73%
12:00 +14°C° 0 mm 3 mps 747 mmHg 73%
13:00 +14°C° 0 mm 3 mps 747 mmHg 73%
14:00 +13°C° 0.1 mm 3 mps 747 mmHg 76%
15:00 +13°C° 0.1 mm 3 mps 747 mmHg 78%
16:00 +13°C° 0.1 mm 3 mps 747 mmHg 81%
17:00 +13°C° 0.2 mm 3 mps 747 mmHg 83%
18:00 +12°C° 0.2 mm 3 mps 747 mmHg 86%
19:00 +12°C° 0.2 mm 3 mps 747 mmHg 89%
20:00 +12°C° 0.3 mm 3 mps 747 mmHg 90%
21:00 +13°C° 0.3 mm 2 mps 747 mmHg 91%
22:00 +13°C° 0.3 mm 2 mps 747 mmHg 92%
23:00 +12°C° 0.1 mm 2 mps 747 mmHg 92%

27 October, Tuesday

Time Temperature Precipitation Wind Pressure Humidity
00:00 +12°C° 0.1 mm 2 mps 747 mmHg 92%
01:00 +12°C° 0.1 mm 1 mps 747 mmHg 93%
02:00 +12°C° 0 mm 1 mps 747 mmHg 92%
03:00 +12°C° 0 mm 1 mps 747 mmHg 92%
04:00 +12°C° 0 mm 1 mps 747 mmHg 92%
05:00 +12°C° 0 mm 1 mps 747 mmHg 92%
06:00 +12°C° 0 mm 1 mps 748 mmHg 92%
07:00 +12°C° 0 mm 1 mps 748 mmHg 91%
08:00 +12°C° 0 mm 1 mps 748 mmHg 89%
09:00 +13°C° 0 mm 1 mps 749 mmHg 87%
10:00 +14°C° 0 mm 1 mps 749 mmHg 84%
11:00 +14°C° 0 mm 1 mps 749 mmHg 83%
12:00 +14°C° 0 mm 2 mps 750 mmHg 82%
13:00 +15°C° 0 mm 2 mps 750 mmHg 81%
14:00 +14°C° 0 mm 2 mps 750 mmHg 84%
15:00 +13°C° 0 mm 2 mps 751 mmHg 86%
16:00 +13°C° 0 mm 2 mps 751 mmHg 89%
17:00 +12°C° 0 mm 2 mps 752 mmHg 90%
18:00 +12°C° 0 mm 2 mps 752 mmHg 92%
19:00 +10°C° 0 mm 2 mps 752 mmHg 93%
20:00 +10°C° 0 mm 2 mps 753 mmHg 94%
21:00 +9°C° 0 mm 2 mps 753 mmHg 95%
22:00 +9°C° 0 mm 2 mps 754 mmHg 96%
23:00 +10°C° 0 mm 1 mps 754 mmHg 95%
Show more